Simultaneous Nadir Overpasses (SNOs) Predictions

Prediction of SNOs between GOES-16 and LANDSAT-8 Satellite Orbit:

Table of predicted SNOs for the next 14.0 days since TLE Epoch: 1/7/2023
Index Date Time (GOES-16) GOES-16 Lat,Lon LANDSAT-8 Lat,Lon Distance(km) Time Diff (sec)
1 01/08/2023 03:03:55 0.02, -75.18 0.44, -73.20 225.73 80
2 01/08/2023 15:27:50 -0.01, -75.21 0.68, -78.35 358.19 80
3 01/10/2023 15:15:38 -0.01, -75.22 0.04, -75.40 20.15 80
4 01/12/2023 15:00:46 -0.00, -75.24 -0.62, -72.44 318.71 80
5 01/13/2023 03:24:49 -0.00, -75.23 -0.53, -77.62 272.63 80
6 01/15/2023 03:09:57 -0.00, -75.26 0.14, -74.67 66.82 80
7 01/17/2023 02:57:44 0.01, -75.28 0.78, -71.71 406.31 80
8 01/17/2023 15:21:39 -0.00, -75.31 0.33, -76.86 177.36 80
9 01/19/2023 15:09:26 -0.02, -75.33 -0.32, -73.91 162.15 80
10 01/20/2023 03:30:50 0.02, -75.32 -0.76, -79.10 428.82 80
